Kelso-Longview, WA
on Saturday, January 5, 2013

Saturday
Previous Day Next Day
Daily Summary
 ActualAverage (KSPB)Record (KSPB)
Temperature
Mean Temperature °F °F  
Max Temperature 39°F °F 57°F (2001)
Min Temperature 35°F °F 19°F (2005)
Degree Days
Heating Degree Days 28    
Month to date heating degree days  
Since 1 July heating degree days  
Cooling Degree Days 0    
Month to date cooling degree days  
Year to date cooling degree days  
Moisture
Dew Point 28°F   
Average Humidity 70    
Maximum Humidity 75    
Minimum Humidity 65    
Precipitation
Precipitation 0.00 in in 0.82 in (2002)
Month to date precipitation  
Year to date precipitation  
Wind
Wind Speed 8 mph   
Max Wind Speed 14 mph   
Max Gust Speed 21 mph   
Visibility 10 miles   
Events     

Key: T is trace of precipitation, MM is missing value
Source: NWS Daily Summary
Time(PST)TemperatureDew PointHumidity Pressure Visibility Wind DirectionWind SpeedGust SpeedPrecipitationEvents Conditions
12:15 AM 37.4°F 28.4°F 70% 30.19 in 10.0 miles SE 10.4 mph - N/A   Overcast
12:35 AM 37.4°F 28.4°F 70% 30.19 in 10.0 miles SSE 6.9 mph - N/A   Overcast
12:55 AM 37.4°F 28.4°F 70% 30.20 in 10.0 miles SE 5.8 mph - N/A   Overcast
1:15 AM 35.6°F 28.4°F 75% 30.20 in 10.0 miles SSE 8.1 mph - N/A   Overcast
1:35 AM 35.6°F 28.4°F 75% 30.20 in 10.0 miles SE 8.1 mph - N/A   Overcast
1:55 AM 35.6°F 28.4°F 75% 30.20 in 10.0 miles SE 8.1 mph - N/A   Overcast
2:15 AM 35.6°F 28.4°F 75% 30.20 in 10.0 miles SSE 6.9 mph - N/A   Mostly Cloudy
2:35 AM 35.6°F 28.4°F 75% 30.20 in 10.0 miles SSE 6.9 mph - N/A   Overcast
2:55 AM 37.4°F 28.4°F 70% 30.20 in 10.0 miles SSE 6.9 mph - N/A   Overcast
3:15 AM 35.6°F 28.4°F 75% 30.21 in 10.0 miles SE 5.8 mph - N/A   Overcast
3:35 AM 35.6°F 28.4°F 75% 30.20 in 10.0 miles SE 5.8 mph - N/A   Overcast
3:55 AM 35.6°F 28.4°F 75% 30.20 in 10.0 miles SSE 4.6 mph - N/A   Mostly Cloudy
4:15 AM 35.6°F 26.6°F 70% 30.20 in 10.0 miles SSE 5.8 mph - N/A   Overcast
4:35 AM 35.6°F 26.6°F 70% 30.19 in 10.0 miles SSE 8.1 mph - N/A   Overcast
4:55 AM 35.6°F 26.6°F 70% 30.19 in 10.0 miles SSE 8.1 mph - N/A   Overcast
5:15 AM 35.6°F 26.6°F 70% 30.19 in 10.0 miles SE 6.9 mph - N/A   Overcast
5:35 AM 35.6°F 26.6°F 70% 30.19 in 10.0 miles SE 8.1 mph - N/A   Overcast
5:55 AM 35.6°F 26.6°F 70% 30.20 in 10.0 miles SSE 6.9 mph - N/A   Overcast
6:15 AM 35.6°F 26.6°F 70% 30.20 in 10.0 miles SE 8.1 mph - N/A   Overcast
6:35 AM 35.6°F 26.6°F 70% 30.21 in 9.0 miles SSE 8.1 mph - N/A   Overcast
6:55 AM 35.6°F 26.6°F 70% 30.20 in 9.0 miles SE 8.1 mph - N/A   Overcast
7:15 AM 35.6°F 26.6°F 70% 30.20 in 8.0 miles SSE 6.9 mph - N/A   Overcast
7:55 AM 37.4°F 26.6°F 65% 30.19 in 8.0 miles SE 8.1 mph - N/A   Overcast
8:15 AM 37.4°F 26.6°F 65% 30.21 in 7.0 miles South 8.1 mph - N/A   Overcast
8:55 AM 37.4°F 26.6°F 65% 30.22 in 8.0 miles SE 8.1 mph - N/A   Overcast
9:15 AM 37.4°F 26.6°F 65% 30.23 in 8.0 miles SE 6.9 mph - N/A   Overcast
9:35 AM 37.4°F 26.6°F 65% 30.22 in 8.0 miles ESE 9.2 mph - N/A   Overcast
9:55 AM 37.4°F 26.6°F 65% 30.21 in 10.0 miles SE 10.4 mph - N/A   Overcast
10:15 AM 37.4°F 28.4°F 70% 30.22 in 8.0 miles SSE 9.2 mph - N/A   Overcast
10:35 AM 37.4°F 28.4°F 70% 30.21 in 8.0 miles South 5.8 mph - N/A   Overcast
10:55 AM 37.4°F 28.4°F 70% 30.22 in 9.0 miles SSE 8.1 mph - N/A   Overcast
11:15 AM 37.4°F 28.4°F 70% 30.22 in 8.0 miles SE 8.1 mph - N/A   Overcast
11:35 AM 37.4°F 28.4°F 70% 30.22 in 8.0 miles SE 6.9 mph - N/A   Mostly Cloudy
11:55 AM 39.2°F 28.4°F 65% 30.21 in 9.0 miles SSE 9.2 mph - N/A   Overcast
12:15 PM 39.2°F 28.4°F 65% 30.20 in 10.0 miles SSE 6.9 mph - N/A   Mostly Cloudy
12:35 PM 39.2°F 28.4°F 65% 30.19 in 10.0 miles SSE 9.2 mph - N/A   Overcast
12:55 PM 39.2°F 30.2°F 70% 30.17 in 10.0 miles SSE 8.1 mph - N/A   Mostly Cloudy
1:15 PM 39.2°F 30.2°F 70% 30.17 in 10.0 miles SSE 9.2 mph - N/A   Mostly Cloudy
1:35 PM 39.2°F 30.2°F 70% 30.18 in 9.0 miles SSE 5.8 mph - N/A   Partly Cloudy
1:55 PM 39.2°F 30.2°F 70% 30.18 in 10.0 miles SSE 8.1 mph - N/A   Scattered Clouds
2:15 PM 39.2°F 30.2°F 70% 30.18 in 10.0 miles SSE 8.1 mph - N/A   Mostly Cloudy
3:15 PM 39.2°F 30.2°F 70% 30.17 in 10.0 miles SSE 5.8 mph - N/A   Mostly Cloudy
3:35 PM 39.2°F 30.2°F 70% 30.17 in 10.0 miles SSE 12.7 mph 17.3 mph N/A   Mostly Cloudy
3:55 PM 39.2°F 30.2°F 70% 30.17 in 10.0 miles SSE 9.2 mph - N/A   Overcast
4:15 PM 39.2°F 30.2°F 70% 30.17 in 10.0 miles SSE 10.4 mph - N/A   Overcast
4:35 PM 39.2°F 30.2°F 70% 30.17 in 10.0 miles SSE 10.4 mph - N/A   Overcast
4:55 PM 37.4°F 30.2°F 75% 30.17 in 10.0 miles SSE 13.8 mph 20.7 mph N/A   Mostly Cloudy
5:15 PM 37.4°F 30.2°F 75% 30.17 in 10.0 miles SE 9.2 mph - N/A   Scattered Clouds
5:35 PM 37.4°F 28.4°F 70% 30.17 in 10.0 miles SE 10.4 mph 17.3 mph N/A   Mostly Cloudy
5:55 PM 37.4°F 28.4°F 70% 30.18 in 10.0 miles SE 10.4 mph 16.1 mph N/A   Overcast
6:15 PM 37.4°F 28.4°F 70% 30.18 in 10.0 miles SSE 8.1 mph - N/A   Overcast
6:35 PM 37.4°F 28.4°F 70% 30.18 in 10.0 miles SSE 8.1 mph - N/A   Overcast
6:55 PM 37.4°F 28.4°F 70% 30.18 in 10.0 miles SE 8.1 mph - N/A   Overcast
7:15 PM 37.4°F 28.4°F 70% 30.19 in 10.0 miles SE 8.1 mph - N/A   Overcast
7:35 PM 37.4°F 28.4°F 70% 30.19 in 10.0 miles SSE 9.2 mph - N/A   Overcast
7:55 PM 37.4°F 28.4°F 70% 30.19 in 10.0 miles SE 5.8 mph - N/A   Overcast
8:15 PM 37.4°F 28.4°F 70% 30.18 in 10.0 miles ESE 5.8 mph - N/A   Overcast
8:35 PM 37.4°F 28.4°F 70% 30.19 in 10.0 miles SSE 5.8 mph - N/A   Overcast
8:55 PM 37.4°F 28.4°F 70% 30.18 in 10.0 miles SE 8.1 mph - N/A   Overcast
9:15 PM 37.4°F 28.4°F 70% 30.19 in 10.0 miles SE 10.4 mph - N/A   Overcast
9:35 PM 37.4°F 28.4°F 70% 30.19 in 10.0 miles SSE 9.2 mph - N/A   Overcast
9:55 PM 37.4°F 28.4°F 70% 30.19 in 10.0 miles SSE 9.2 mph - N/A   Overcast
10:15 PM 37.4°F 28.4°F 70% 30.19 in 10.0 miles SSE 11.5 mph 16.1 mph N/A   Overcast
10:35 PM 37.4°F 28.4°F 70% 30.20 in 10.0 miles SSE 10.4 mph - N/A   Overcast
10:55 PM 37.4°F 28.4°F 70% 30.20 in 10.0 miles SE 10.4 mph 18.4 mph N/A   Overcast
11:15 PM 37.4°F 28.4°F 70% 30.20 in 10.0 miles SSE 10.4 mph - N/A   Overcast
11:35 PM 37.4°F 30.2°F 75% 30.20 in 10.0 miles SE 10.4 mph - N/A   Overcast
11:55 PM 37.4°F 28.4°F 70% 30.20 in 10.0 miles SSE 8.1 mph - N/A   Overcast
Moon Phase
Jan. 05 Jan. 11 Jan. 18 Jan. 26 Feb. 03
Sunrise:07:53 AM (PST) Moon Rise:12:55 AM (PST)1/5
Sunset:04:41 PM (PST) Moon Set:11:43 AM (PST)1/5

Copyright © 2014 The Weather Underground, Inc.